[[{"header":{"parameterUnit":"m.s-1","parameterCategory":1,"la1":30.2992,"la2":30.254,"lo1":-89.0895,"lo2":-89.0443,"dy":0.0025,"dx":0.0025,"nx":19,"ny":19,"refTime":"2026-03-22T03:00:00:Z","depth":0,"parameterNumber":2,"parameterNumberName":"U-component_of_WINDS"},"data":[0,0,0,2.7659,2.7662,2.7796,2.7797,2.797,2.7971,0,0,0,0,0,0,0,0,0,0,0,2.7619,2.762,2.7659,2.7662,2.7796,2.7797,2.7969,2.7971,0,0,0,0,0,0,0,0,0,0,0,2.7619,2.762,2.7622,2.7663,2.7796,2.7797,2.7969,2.7868,0,0,0,0,0,0,0,0,0,0,2.7737,2.77,2.762,2.7622,2.7664,2.7796,2.7797,2.7863,2.7874,2.7909,0,2.7939,0,2.7958,2.7983,2.7983,0,0,0,2.7663,2.7691,2.7727,2.7622,2.7665,2.7796,2.7736,2.7869,2.7882,2.7924,2.7942,2.7948,2.7961,2.7984,2.7985,2.8183,2.8184,0,0,2.7655,2.7644,2.7718,2.7735,2.7713,2.7732,2.774,2.7877,2.7896,2.7942,2.7952,2.7964,2.7985,2.7986,2.8182,2.8184,0,0,0,2.7634,2.7638,2.7671,2.7728,2.7752,2.7736,2.7745,2.789,2.7901,2.7954,2.7966,2.7986,2.7988,2.8181,2.8183,2.8216,0,0,0,2.7629,2.7626,2.7668,2.7662,2.7749,2.7822,2.7755,2.7892,2.7908,2.7965,2.7986,2.799,2.818,2.8182,2.8213,2.8233,0,0,0,2.7611,2.7624,2.7643,2.7661,2.7718,2.782,2.784,2.7896,2.7915,2.7984,2.799,2.818,2.8182,2.821,2.8229,2.8282,0,0,0,2.7588,2.7671,2.7643,2.7741,2.7717,2.7839,2.7839,2.7931,2.7994,2.7987,2.8181,2.8183,2.8209,2.8226,2.8279,2.8325,2.8343,0,0,2.7686,2.7682,2.774,2.772,2.7843,2.782,2.7949,2.8018,2.8036,2.8133,2.8139,2.8214,2.8229,2.8282,2.8446,2.846,0,0,0,2.7768,2.7809,2.7845,2.7903,2.7958,2.8006,2.8056,2.8082,2.8165,2.8083,2.8247,2.8257,2.8288,2.8311,2.8323,2.8351,2.8192,2.8192,2.8192,2.789,2.7908,2.8005,2.8039,2.8096,2.8147,2.8195,2.8239,2.824,2.8279,2.8308,2.8405,2.8431,2.844,2.8469,2.8333,2.8333,2.8334,2.8334,2.8036,2.8098,2.8097,2.8192,2.821,2.829,2.8343,2.8341,2.8419,2.8385,2.8414,2.8375,2.8455,2.8481,2.8336,2.8336,2.8336,2.8335,2.8335,2.8118,2.8151,2.818,2.8267,2.8332,2.8363,2.8438,2.8452,2.8466,2.8494,2.8527,2.8526,2.8528,2.8509,2.8509,2.8509,2.851,2.851,2.851,2.8192,2.8224,2.8285,2.8349,2.8388,2.8442,2.8494,2.8534,2.8581,2.8586,2.8587,2.8585,2.8459,2.8428,2.8516,2.8515,2.8514,2.8513,2.8513,2.8334,2.8304,2.8397,2.8437,2.8514,2.8577,2.8594,2.8674,2.8709,2.8745,2.8737,2.8642,2.8639,2.863,2.8604,2.8733,2.8733,2.8733,2.8733,2.8404,2.8403,2.8502,2.8564,2.8627,2.8652,2.8757,2.8799,2.8837,2.886,2.8843,2.881,2.88,2.8803,2.879,2.8766,2.8933,2.8933,2.8933,2.8492,2.8498,2.8585,2.8621,2.8682,2.8734,2.8834,2.8907,2.8944,2.8942,2.8878,2.887,2.8816,2.8797,2.8794,2.8773,2.8729,0,0]},{"header":{"parameterUnit":"m.s-1","parameterCategory":1,"la1":30.2992,"la2":30.254,"lo1":-89.0895,"lo2":-89.0443,"dy":0.0025,"dx":0.0025,"nx":19,"ny":19,"refTime":"2026-03-22T03:00:00:Z","depth":0,"parameterNumber":3,"parameterNumberName":"V-component_of_WINDS"},"data":[0,0,0,2.7814,2.7815,2.7887,2.7887,2.7979,2.798,0,0,0,0,0,0,0,0,0,0,0,2.7795,2.7796,2.7814,2.7816,2.7886,2.7887,2.7979,2.798,0,0,0,0,0,0,0,0,0,0,0,2.7795,2.7796,2.7796,2.7816,2.7886,2.7887,2.7978,2.7924,0,0,0,0,0,0,0,0,0,0,2.7855,2.784,2.7795,2.7796,2.7816,2.7886,2.7887,2.7921,2.7927,2.7948,0,2.7968,0,2.7975,2.7986,2.7986,0,0,0,2.7813,2.7835,2.7852,2.7797,2.7817,2.7886,2.7854,2.7925,2.7931,2.7956,2.7969,2.7972,2.7977,2.7987,2.7987,2.8116,2.8117,0,0,2.7809,2.7808,2.7848,2.7857,2.7848,2.7852,2.7856,2.7929,2.7942,2.7969,2.7974,2.7978,2.7987,2.7988,2.8116,2.8117,0,0,0,2.78,2.7806,2.7821,2.7853,2.7866,2.7854,2.7859,2.7939,2.7944,2.7975,2.7979,2.7988,2.7989,2.8115,2.8116,2.8152,0,0,0,2.7797,2.78,2.782,2.782,2.7865,2.7904,2.7868,2.7939,2.7948,2.7979,2.7988,2.799,2.8114,2.8116,2.815,2.8169,0,0,0,2.7789,2.7799,2.7811,2.782,2.7851,2.7903,2.7912,2.7941,2.795,2.7986,2.799,2.8114,2.8115,2.8147,2.8165,2.8205,0,0,0,2.7781,2.784,2.7811,2.7879,2.785,2.7925,2.7912,2.7967,2.8002,2.7988,2.8114,2.8116,2.8147,2.8163,2.8202,2.8238,2.8253,0,0,2.7855,2.7849,2.7888,2.7865,2.7945,2.7914,2.7999,2.8031,2.8033,2.8088,2.8091,2.8151,2.8165,2.8204,2.8335,2.8346,0,0,0,2.7912,2.7941,2.7962,2.7997,2.8024,2.8049,2.8068,2.808,2.8127,2.8062,2.8175,2.8183,2.8206,2.8223,2.8234,2.8254,2.8124,2.8124,2.8123,2.8015,2.8018,2.8084,2.8096,2.813,2.815,2.8177,2.8196,2.8187,2.8214,2.823,2.8309,2.833,2.8337,2.8358,2.8249,2.8249,2.8249,2.8249,2.8125,2.8167,2.8155,2.8216,2.8218,2.8268,2.829,2.8282,2.8328,2.8297,2.8317,2.8283,2.835,2.8369,2.8252,2.8251,2.8251,2.8251,2.825,2.8194,2.8214,2.8229,2.8281,2.832,2.8329,2.8375,2.8374,2.8374,2.8394,2.8412,2.8411,2.8411,2.8402,2.8403,2.8403,2.8403,2.8403,2.8403,2.826,2.8276,2.8316,2.8351,2.8374,2.8404,2.8426,2.8448,2.8472,2.8468,2.8468,2.8457,2.8356,2.8332,2.8408,2.8407,2.8406,2.8406,2.8406,2.8371,2.8347,2.8409,2.8432,2.8474,2.8514,2.8513,2.8558,2.8576,2.8599,2.8584,2.8509,2.8502,2.8494,2.8474,2.8582,2.8582,2.8582,2.8582,2.843,2.8427,2.8492,2.853,2.8566,2.8572,2.8642,2.8659,2.8673,2.8684,2.8668,2.8641,2.8632,2.863,2.8619,2.8601,2.8739,2.8739,2.8739,2.85,2.8501,2.8561,2.8576,2.8609,2.8637,2.8703,2.8746,2.8756,2.8745,2.8693,2.8686,2.8642,2.8628,2.8617,2.86,2.8565,0,0]}]]